Location: Corocito
(10.1894°N, 67.0986°W)
Time: 09:27:27
(UTC+00:00)

Cosmos 1378 - Pass Details

Date: 29 May 2024
Orbit: 417 x 417 km, 82.5° (Epoch: 16 June)

Event Time Altitude Azimuth Distance (km) Brightness Sun altitude
Rises 23:16:21 0° 179° (S) 2,369 6.3 -7.7°
Reaches altitude 10° 23:18:24 10° 175° (S) 1,505 5.3 -8.1°
Maximum altitude 23:21:38 62° 94° (E) 477 2.7 -8.9°
Drops below altitude 10° 23:24:52 10° 12° (NNE) 1,503 5.7 -9.6°
Sets 23:26:54 0° 9° (N) 2,366 6.8 -10.0°
